,,Stat6,,Stat2,,Stat8,,Stat9,,Stat10,,Wind1,,Wind1,
time,status,PA1M_AVG,status,PR1M_SUM,status,RH1M_AVG,status,SR1M_AVG,status,TA1M_AVG,status,W1dAve1m,status,W1sAve1m,
2009-05-28, 00:00:00,VALID,916.434,VALID,0,VALID,89.1776,VALID,0,VALID,19.4342,VALID,115,VALID,0,
2009-05-28, 00:01:00,VALID,916.442,VALID,0,VALID,89.3366,VALID,0,VALID,19.4278,VALID,117,VALID,0,
2009-05-28, 00:02:00,VALID,916.428,VALID,0,VALID,89.3925,VALID,0,VALID,19.4338,VALID,122,VALID,0,
2009-05-28, 00:03:00,VALID,916.435,VALID,0,VALID,90.0423,VALID,0.0169808,VALID,19.4664,VALID,105,VALID,0,
2009-05-28, 00:04:00,VALID,916.438,VALID,0,VALID,90.2687,VALID,-0.0169808,VALID,19.3758,VALID,102,VALID,0,
2009-05-28, 00:05:00,VALID,916.427,VALID,0,VALID,90.0983,VALID,0.0169808,VALID,19.2947,VALID,108,VALID,0,
2009-05-28, 00:06:00,VALID,916.415,VALID,0,VALID,89.9368,VALID,0,VALID,19.3274,VALID,129,VALID,0,
2009-05-28, 00:07:00,VALID,916.415,VALID,0,VALID,90.1847,VALID,-0.0339617,VALID,19.3788,VALID,132,VALID,0,
2009-05-28, 00:08:00,VALID,916.421,VALID,0,VALID,90.2521,VALID,0,VALID,19.3594,VALID,132,VALID,0,
2009-05-28, 00:09:00,VALID,916.427,VALID,0,VALID,90.2534,VALID,-0.0849042,VALID,19.3179,VALID,132,VALID,0,
2009-05-28, 00:10:00,VALID,916.425,VALID,0,VALID,90.1593,VALID,-0.118866,VALID,19.3222,VALID,132,VALID,0,
2009-05-28, 00:11:00,VALID,916.432,VALID,0,VALID,90.1504,VALID,-0.101885,VALID,19.3419,VALID,132,VALID,0,
2009-05-28, 00:12:00,VALID,916.421,VALID,0,VALID,90.7811,VALID,-0.101885,VALID,19.384,VALID,132,VALID,0,
2009-05-28, 00:13:00,VALID,916.414,VALID,0,VALID,91.174,VALID,-0.0849042,VALID,19.3773,VALID,132,VALID,0,
2009-05-28, 00:14:00,VALID,916.411,VALID,0,VALID,90.8193,VALID,-0.101885,VALID,19.3027,VALID,132,VALID,0,
2009-05-28, 00:15:00,VALID,916.402,VALID,0,VALID,90.7989,VALID,-0.118866,VALID,19.2633,VALID,132,VALID,0,
2009-05-28, 00:16:00,VALID,916.386,VALID,0,VALID,90.832,VALID,-0.101885,VALID,19.238,VALID,132,VALID,0,
2009-05-28, 00:17:00,VALID,916.371,VALID,0,VALID,90.6629,VALID,-0.118866,VALID,19.1891,VALID,129,VALID,0,
2009-05-28, 00:18:00,VALID,916.353,VALID,0,VALID,90.9324,VALID,-0.101885,VALID,19.1437,VALID,112,VALID,0,
2009-05-28, 00:19:00,VALID,916.332,VALID,0,VALID,91.5161,VALID,-0.101885,VALID,19.1175,VALID,112,VALID,0,
2009-05-28, 00:20:00,VALID,916.318,VALID,0,VALID,91.5403,VALID,-0.101885,VALID,19.0461,VALID,130,VALID,0,
2009-05-28, 00:21:00,VALID,916.304,VALID,0,VALID,91.5441,VALID,-0.118866,VALID,19.0137,VALID,134,VALID,0,
2009-05-28, 00:22:00,VALID,916.303,VALID,0,VALID,91.4474,VALID,-0.118866,VALID,19.0167,VALID,129,VALID,0,
2009-05-28, 00:23:00,VALID,916.281,VALID,0,VALID,91.0405,VALID,-0.101885,VALID,19.004,VALID,127,VALID,0.00981105,
2009-05-28, 00:24:00,VALID,916.277,VALID,0,VALID,90.6107,VALID,-0.0169808,VALID,19.0382,VALID,116,VALID,0.322088,
2009-05-28, 00:25:00,VALID,916.272,VALID,0,VALID,90.5026,VALID,0.0169808,VALID,19.0771,VALID,112,VALID,0.0379464,
2009-05-28, 00:26:00,VALID,916.276,VALID,0,VALID,90.7303,VALID,-0.0169808,VALID,19.0507,VALID,105,VALID,0.00130208,
2009-05-28, 00:27:00,VALID,916.29,VALID,0,VALID,90.8396,VALID,0.0169808,VALID,19.0215,VALID,112,VALID,0.0355114,
2009-05-28, 00:28:00,VALID,916.299,VALID,0,VALID,90.9121,VALID,0.0339617,VALID,19.0213,VALID,114,VALID,0,
2009-05-28, 00:29:00,VALID,916.297,VALID,0,VALID,90.9553,VALID,0.0169808,VALID,19.005,VALID,119,VALID,0,
2009-05-28, 00:30:00,VALID,916.288,VALID,0,VALID,91.0011,VALID,0,VALID,18.9791,VALID,119,VALID,0,
2009-05-28, 00:31:00,VALID,916.263,VALID,0,VALID,91.0952,VALID,0,VALID,18.9466,VALID,123,VALID,0,
2009-05-28, 00:32:00,VALID,916.259,VALID,0,VALID,91.188,VALID,0,VALID,18.9342,VALID,119,VALID,0,
2009-05-28, 00:33:00,VALID,916.25,VALID,0,VALID,91.1613,VALID,0,VALID,18.9142,VALID,129,VALID,0,
2009-05-28, 00:34:00,VALID,916.242,VALID,0,VALID,90.9274,VALID,0.0169808,VALID,18.9402,VALID,133,VALID,0,
2009-05-28, 00:35:00,VALID,916.242,VALID,0,VALID,90.8485,VALID,0.0169808,VALID,18.9434,VALID,145,VALID,0,
2009-05-28, 00:36:00,VALID,916.23,VALID,0,VALID,90.7188,VALID,0.0169808,VALID,18.9402,VALID,154,VALID,0,
2009-05-28, 00:37:00,VALID,916.203,VALID,0,VALID,90.5014,VALID,0.0169808,VALID,18.9404,VALID,151,VALID,0,
2009-05-28, 00:38:00,VALID,916.202,VALID,0,VALID,90.3615,VALID,0.0339617,VALID,18.9596,VALID,132,VALID,0,
2009-05-28, 00:39:00,VALID,916.195,VALID,0,VALID,90.1886,VALID,-0.0339617,VALID,18.9638,VALID,132,VALID,0,
2009-05-28, 00:40:00,VALID,916.189,VALID,0,VALID,90.2877,VALID,-0.0849042,VALID,18.9708,VALID,132,VALID,0,
2009-05-28, 00:41:00,VALID,916.169,VALID,0,VALID,90.977,VALID,-0.0849042,VALID,18.984,VALID,132,VALID,0,
2009-05-28, 00:42:00,VALID,916.13,VALID,0,VALID,90.6654,VALID,-0.0849042,VALID,18.8964,VALID,128,VALID,0,
2009-05-28, 00:43:00,VALID,916.107,VALID,0,VALID,90.7188,VALID,-0.0849042,VALID,18.7792,VALID,96,VALID,0,
2009-05-28, 00:44:00,VALID,916.086,VALID,0,VALID,91.6102,VALID,-0.101885,VALID,18.6464,VALID,83,VALID,0,
2009-05-28, 00:45:00,VALID,916.08,VALID,0,VALID,92.1595,VALID,-0.101885,VALID,18.455,VALID,77,VALID,0,
2009-05-28, 00:46:00,VALID,916.054,VALID,0,VALID,92.719,VALID,-0.0679233,VALID,18.3579,VALID,82,VALID,0,
2009-05-28, 00:47:00,VALID,916.038,VALID,0,VALID,92.9568,VALID,-0.101885,VALID,18.2312,VALID,82,VALID,0,
2009-05-28, 00:48:00,VALID,916.006,VALID,0,VALID,92.6402,VALID,-0.101885,VALID,18.2217,VALID,81,VALID,0,
2009-05-28, 00:49:00,VALID,915.978,VALID,0,VALID,91.717,VALID,-0.0679233,VALID,18.3577,VALID,86,VALID,0,
2009-05-28, 00:50:00,VALID,915.962,VALID,0,VALID,90.6285,VALID,-0.0679233,VALID,18.5034,VALID,94,VALID,0.0515988,
2009-05-28, 00:51:00,VALID,915.934,VALID,0,VALID,89.6774,VALID,-0.0849042,VALID,18.6237,VALID,109,VALID,0.0957532,
2009-05-28, 00:52:00,VALID,915.922,VALID,0,VALID,89.02,VALID,-0.101885,VALID,18.7148,VALID,115,VALID,0.227834,
2009-05-28, 00:53:00,VALID,915.916,VALID,0,VALID,88.8445,VALID,-0.0849042,VALID,18.7766,VALID,119,VALID,1.3432,
2009-05-28, 00:54:00,VALID,915.921,VALID,0,VALID,88.6868,VALID,-0.0509425,VALID,18.8401,VALID,127,VALID,0.808321,
2009-05-28, 00:55:00,VALID,915.932,VALID,0,VALID,88.2099,VALID,-0.0169808,VALID,18.9344,VALID,128,VALID,0.00208333,
2009-05-28, 00:56:00,VALID,915.954,VALID,0,VALID,87.8157,VALID,0,VALID,19.0113,VALID,128,VALID,0,
2009-05-28, 00:57:00,VALID,915.946,VALID,0,VALID,87.6721,VALID,0,VALID,19.0567,VALID,130,VALID,0,
2009-05-28, 00:58:00,VALID,915.931,VALID,0,VALID,87.7954,VALID,0.0169808,VALID,19.0505,VALID,136,VALID,0,
2009-05-28, 00:59:00,VALID,915.923,VALID,0,VALID,88.0256,VALID,0,VALID,18.9624,VALID,140,VALID,0,
2009-05-28, 01:00:00,VALID,915.901,VALID,0,VALID,87.9429,VALID,0.0679233,VALID,18.8651,VALID,137,VALID,0.0648619,
2009-05-28, 01:01:00,VALID,915.919,VALID,0,VALID,87.8246,VALID,0.0679233,VALID,18.8459,VALID,137,VALID,0.209263,
2009-05-28, 01:02:00,VALID,915.912,VALID,0,VALID,88.0523,VALID,0.0679233,VALID,18.8324,VALID,145,VALID,0.791016,
2009-05-28, 01:03:00,VALID,915.901,VALID,0,VALID,88.1985,VALID,0.0339617,VALID,18.8039,VALID,141,VALID,0.931108,
2009-05-28, 01:04:00,VALID,915.891,VALID,0,VALID,88.4604,VALID,0.0169808,VALID,18.7326,VALID,136,VALID,0.924964,
2009-05-28, 01:05:00,VALID,915.883,VALID,0,VALID,88.8941,VALID,0.0339617,VALID,18.6839,VALID,136,VALID,0.665153,
2009-05-28, 01:06:00,VALID,915.868,VALID,0,VALID,89.1484,VALID,0,VALID,18.648,VALID,133,VALID,0.994048,
2009-05-28, 01:07:00,VALID,915.866,VALID,0,VALID,89.2018,VALID,0.0169808,VALID,18.6255,VALID,127,VALID,0.429688,
2009-05-28, 01:08:00,VALID,915.831,VALID,0,VALID,89.2196,VALID,0.0339617,VALID,18.5834,VALID,124,VALID,0.742383,
2009-05-28, 01:09:00,VALID,915.818,VALID,0,VALID,88.8432,VALID,-0.0679233,VALID,18.5943,VALID,118,VALID,0.505008,
2009-05-28, 01:10:00,VALID,915.811,VALID,0,VALID,87.7102,VALID,-0.0849042,VALID,18.7337,VALID,113,VALID,1.13132,
2009-05-28, 01:11:00,VALID,915.793,VALID,0,VALID,86.5314,VALID,-0.101885,VALID,18.8994,VALID,110,VALID,0.939546,
2009-05-28, 01:12:00,VALID,915.792,VALID,0,VALID,84.9877,VALID,-0.0849042,VALID,19.0225,VALID,110,VALID,0.799538,
2009-05-28, 01:13:00,VALID,915.79,VALID,0,VALID,84.0938,VALID,-0.0509425,VALID,19.1844,VALID,114,VALID,0.926829,
2009-05-28, 01:14:00,VALID,915.768,VALID,0,VALID,84.0721,VALID,-0.0679233,VALID,19.2234,VALID,127,VALID,0.662202,
2009-05-28, 01:15:00,VALID,915.771,VALID,0,VALID,84.357,VALID,-0.101885,VALID,19.2011,VALID,136,VALID,0.878405,
2009-05-28, 01:16:00,VALID,915.767,VALID,0,VALID,84.8427,VALID,-0.0679233,VALID,19.1522,VALID,144,VALID,1.09642,
2009-05-28, 01:17:00,VALID,915.763,VALID,0,VALID,84.6787,VALID,-0.0849042,VALID,19.1233,VALID,131,VALID,0.867014,
2009-05-28, 01:18:00,VALID,915.754,VALID,0,VALID,85.2115,VALID,-0.0509425,VALID,19.0187,VALID,127,VALID,0.716844,
2009-05-28, 01:19:00,VALID,915.744,VALID,0,VALID,85.6362,VALID,-0.0679233,VALID,18.8864,VALID,127,VALID,0.574777,
2009-05-28, 01:20:00,VALID,915.741,VALID,0,VALID,86.1487,VALID,-0.101885,VALID,18.7891,VALID,130,VALID,0,
2009-05-28, 01:21:00,VALID,915.733,VALID,0,VALID,86.4399,VALID,-0.0679233,VALID,18.7048,VALID,140,VALID,0.837695,
2009-05-28, 01:22:00,VALID,915.73,VALID,0,VALID,86.8124,VALID,-0.0679233,VALID,18.6723,VALID,146,VALID,1.18121,
2009-05-28, 01:23:00,VALID,915.73,VALID,0,VALID,87.569,VALID,-0.0849042,VALID,18.6756,VALID,151,VALID,1.22088,
2009-05-28, 01:24:00,VALID,915.72,VALID,0,VALID,88.3422,VALID,-0.101885,VALID,18.6589,VALID,155,VALID,1.21019,
2009-05-28, 01:25:00,VALID,915.709,VALID,0,VALID,89.3073,VALID,-0.101885,VALID,18.5878,VALID,159,VALID,1.14601,
2009-05-28, 01:26:00,VALID,915.708,VALID,0,VALID,90.2738,VALID,-0.101885,VALID,18.5264,VALID,151,VALID,0.147693,
2009-05-28, 01:27:00,VALID,915.709,VALID,0,VALID,91.4373,VALID,-0.101885,VALID,18.455,VALID,146,VALID,0,
2009-05-28, 01:28:00,VALID,915.71,VALID,0,VALID,91.7666,VALID,-0.101885,VALID,18.3568,VALID,143,VALID,0,
2009-05-28, 01:29:00,VALID,915.709,VALID,0,VALID,91.5873,VALID,-0.101885,VALID,18.2632,VALID,137,VALID,0.264776,
2009-05-28, 01:30:00,VALID,915.691,VALID,0,VALID,91.3228,VALID,-0.0509425,VALID,18.1817,VALID,124,VALID,0.0904796,
2009-05-28, 01:31:00,VALID,915.677,VALID,0,VALID,91.5059,VALID,-0.0509425,VALID,18.0647,VALID,116,VALID,0.217285,
2009-05-28, 01:32:00,VALID,915.663,VALID,0,VALID,91.7997,VALID,-0.101885,VALID,18.0331,VALID,103,VALID,0,
2009-05-28, 01:33:00,VALID,915.638,VALID,0,VALID,91.4411,VALID,-0.0849042,VALID,18.0779,VALID,103,VALID,0,
2009-05-28, 01:34:00,VALID,915.641,VALID,0,VALID,90.3729,VALID,-0.0509425,VALID,18.1884,VALID,107,VALID,0,
2009-05-28, 01:35:00,VALID,915.645,VALID,0,VALID,90.0131,VALID,-0.0679233,VALID,18.2495,VALID,134,VALID,0,
2009-05-28, 01:36:00,VALID,915.62,VALID,0,VALID,89.2527,VALID,-0.0509425,VALID,18.24,VALID,141,VALID,0,
2009-05-28, 01:37:00,VALID,915.612,VALID,0,VALID,88.6728,VALID,-0.0849042,VALID,18.2725,VALID,143,VALID,0.400391,
2009-05-28, 01:38:00,VALID,915.596,VALID,0,VALID,88.2722,VALID,-0.101885,VALID,18.3114,VALID,139,VALID,0.235465,
2009-05-28, 01:39:00,VALID,915.569,VALID,0,VALID,88.037,VALID,-0.0679233,VALID,18.3313,VALID,139,VALID,0,
2009-05-28, 01:40:00,VALID,915.564,VALID,0,VALID,87.8679,VALID,-0.0679233,VALID,18.3151,VALID,132,VALID,0,
2009-05-28, 01:41:00,VALID,915.559,VALID,0,VALID,87.7992,VALID,-0.101885,VALID,18.3056,VALID,130,VALID,0,
2009-05-28, 01:42:00,VALID,915.55,VALID,0,VALID,87.7547,VALID,-0.101885,VALID,18.2827,VALID,128,VALID,0,
2009-05-28, 01:43:00,VALID,915.559,VALID,0,VALID,87.8666,VALID,-0.101885,VALID,18.2664,VALID,128,VALID,0,
2009-05-28, 01:44:00,VALID,915.546,VALID,0,VALID,88.084,VALID,-0.0339617,VALID,18.2308,VALID,126,VALID,0,
2009-05-28, 01:45:00,VALID,915.531,VALID,0,VALID,88.3358,VALID,-0.0339617,VALID,18.1946,VALID,117,VALID,0,
2009-05-28, 01:46:00,VALID,915.512,VALID,0,VALID,88.6219,VALID,-0.0169808,VALID,18.1265,VALID,104,VALID,0,
2009-05-28, 01:47:00,VALID,915.503,VALID,0,VALID,89.1115,VALID,-0.101885,VALID,18.0649,VALID,109,VALID,0.0664063,
2009-05-28, 01:48:00,VALID,915.49,VALID,0,VALID,88.9894,VALID,-0.0679233,VALID,18.1492,VALID,120,VALID,0,
2009-05-28, 01:49:00,VALID,915.467,VALID,0,VALID,88.5914,VALID,-0.0679233,VALID,18.1916,VALID,121,VALID,0,
2009-05-28, 01:50:00,VALID,915.459,VALID,0,VALID,88.3778,VALID,-0.0679233,VALID,18.2041,VALID,121,VALID,0,
2009-05-28, 01:51:00,VALID,915.463,VALID,0,VALID,88.2379,VALID,-0.0679233,VALID,18.2495,VALID,125,VALID,0,
2009-05-28, 01:52:00,VALID,915.47,VALID,0,VALID,88.1324,VALID,-0.0849042,VALID,18.3246,VALID,128,VALID,0,
2009-05-28, 01:53:00,VALID,915.433,VALID,0,VALID,88.1845,VALID,-0.0849042,VALID,18.3014,VALID,129,VALID,0,
2009-05-28, 01:54:00,VALID,915.432,VALID,0,VALID,88.3333,VALID,-0.0849042,VALID,18.2861,VALID,132,VALID,0,
2009-05-28, 01:55:00,VALID,915.424,VALID,0,VALID,88.3371,VALID,-0.0509425,VALID,18.2495,VALID,145,VALID,0,
2009-05-28, 01:56:00,VALID,915.428,VALID,0,VALID,88.1375,VALID,-0.101885,VALID,18.2597,VALID,144,VALID,0,
2009-05-28, 01:57:00,VALID,915.426,VALID,0,VALID,87.8119,VALID,-0.0849042,VALID,18.2854,VALID,142,VALID,0,
2009-05-28, 01:58:00,VALID,915.417,VALID,0,VALID,87.5449,VALID,-0.101885,VALID,18.2789,VALID,149,VALID,0,
2009-05-28, 01:59:00,VALID,915.414,VALID,0,VALID,87.2219,VALID,-0.101885,VALID,18.2757,VALID,150,VALID,0,
2009-05-28, 02:00:00,VALID,915.41,VALID,0,VALID,87.1431,VALID,-0.101885,VALID,18.2924,VALID,139,VALID,0.300686,
2009-05-28, 02:01:00,VALID,915.396,VALID,0,VALID,87.2613,VALID,-0.101885,VALID,18.2437,VALID,139,VALID,0.716087,
2009-05-28, 02:02:00,VALID,915.372,VALID,0,VALID,87.5805,VALID,-0.0679233,VALID,18.1689,VALID,139,VALID,0.457508,
2009-05-28, 02:03:00,VALID,915.355,VALID,0,VALID,87.9124,VALID,-0.101885,VALID,18.1464,VALID,134,VALID,0,
2009-05-28, 02:04:00,VALID,915.332,VALID,0,VALID,88.2455,VALID,-0.0849042,VALID,18.1135,VALID,133,VALID,0.0903764,
2009-05-28, 02:05:00,VALID,915.343,VALID,0,VALID,88.6639,VALID,-0.101885,VALID,18.1105,VALID,136,VALID,0.331555,
2009-05-28, 02:06:00,VALID,915.346,VALID,0,VALID,88.8101,VALID,-0.101885,VALID,18.0554,VALID,142,VALID,0.559593,
2009-05-28, 02:07:00,VALID,915.343,VALID,0,VALID,89.3289,VALID,-0.101885,VALID,17.9868,VALID,146,VALID,0.618641,
2009-05-28, 02:08:00,VALID,915.339,VALID,0,VALID,89.9584,VALID,-0.0679233,VALID,17.9514,VALID,148,VALID,0.0550595,
2009-05-28, 02:09:00,VALID,915.335,VALID,0,VALID,90.2509,VALID,-0.0849042,VALID,17.9326,VALID,149,VALID,0.116629,
2009-05-28, 02:10:00,VALID,915.312,VALID,0,VALID,90.6781,VALID,-0.0509425,VALID,17.9127,VALID,145,VALID,0.00381541,
2009-05-28, 02:11:00,VALID,915.295,VALID,0,VALID,90.982,VALID,-0.0849042,VALID,17.8969,VALID,147,VALID,0,
2009-05-28, 02:12:00,VALID,915.304,VALID,0,VALID,91.4385,VALID,-0.101885,VALID,17.8571,VALID,141,VALID,0,
2009-05-28, 02:13:00,VALID,915.284,VALID,0,VALID,92.0794,VALID,-0.0679233,VALID,17.8546,VALID,145,VALID,0,
2009-05-28, 02:14:00,VALID,915.273,VALID,0,VALID,92.3185,VALID,-0.101885,VALID,17.8284,VALID,146,VALID,0.00353423,
2009-05-28, 02:15:00,VALID,915.266,VALID,0,VALID,92.5296,VALID,-0.0679233,VALID,17.8094,VALID,153,VALID,0.230564,
2009-05-28, 02:16:00,VALID,915.267,VALID,0,VALID,92.6962,VALID,-0.0509425,VALID,17.7862,VALID,146,VALID,0.00595238,
2009-05-28, 02:17:00,VALID,915.263,VALID,0,VALID,92.8017,VALID,-0.101885,VALID,17.77,VALID,145,VALID,0.498698,
2009-05-28, 02:18:00,VALID,915.266,VALID,0,VALID,92.7432,VALID,-0.0849042,VALID,17.7441,VALID,138,VALID,1.06726,
2009-05-28, 02:19:00,VALID,915.274,VALID,0,VALID,91.9039,VALID,-0.0849042,VALID,17.7184,VALID,138,VALID,0.629794,
2009-05-28, 02:20:00,VALID,915.284,VALID,0,VALID,91.2516,VALID,-0.0849042,VALID,17.7285,VALID,137,VALID,1.17726,
2009-05-28, 02:21:00,VALID,915.286,VALID,0,VALID,90.8129,VALID,-0.118866,VALID,17.7545,VALID,134,VALID,0.379464,
2009-05-28, 02:22:00,VALID,915.304,VALID,0,VALID,90.5688,VALID,-0.0849042,VALID,17.7607,VALID,136,VALID,0.969336,
2009-05-28, 02:23:00,VALID,915.31,VALID,0,VALID,90.5471,VALID,-0.101885,VALID,17.7543,VALID,136,VALID,0.992001,
2009-05-28, 02:24:00,VALID,915.335,VALID,0,VALID,90.3259,VALID,0,VALID,17.733,VALID,141,VALID,1.02362,
2009-05-28, 02:25:00,VALID,915.36,VALID,0,VALID,89.8935,VALID,0.0339617,VALID,17.7068,VALID,131,VALID,1.03232,
2009-05-28, 02:26:00,VALID,915.367,VALID,0,VALID,89.3607,VALID,0.0339617,VALID,17.7073,VALID,135,VALID,0.751478,
2009-05-28, 02:27:00,VALID,915.37,VALID,0,VALID,88.8991,VALID,0.0169808,VALID,17.7166,VALID,139,VALID,0,
2009-05-28, 02:28:00,VALID,915.36,VALID,0,VALID,88.4821,VALID,0.0169808,VALID,17.7555,VALID,145,VALID,0.0480469,
2009-05-28, 02:29:00,VALID,915.354,VALID,0,VALID,88.2455,VALID,0.0509425,VALID,17.8043,VALID,139,VALID,0.531795,
2009-05-28, 02:30:00,VALID,915.369,VALID,0,VALID,88.065,VALID,0.0339617,VALID,17.8365,VALID,139,VALID,0.800595,
2009-05-28, 02:31:00,VALID,915.395,VALID,0,VALID,87.5703,VALID,0.0339617,VALID,17.8525,VALID,133,VALID,0.651526,
2009-05-28, 02:32:00,VALID,915.407,VALID,0,VALID,86.5975,VALID,0.0339617,VALID,17.9211,VALID,128,VALID,0.865057,
2009-05-28, 02:33:00,VALID,915.405,VALID,0,VALID,85.4976,VALID,0.0169808,VALID,17.9952,VALID,129,VALID,0.847656,
2009-05-28, 02:34:00,VALID,915.406,VALID,0,VALID,84.6316,VALID,0.0339617,VALID,18.083,VALID,132,VALID,1.28716,
2009-05-28, 02:35:00,VALID,915.394,VALID,0,VALID,84.1433,VALID,0.0169808,VALID,18.1159,VALID,135,VALID,1.29824,
2009-05-28, 02:36:00,VALID,915.395,VALID,0,VALID,84.0149,VALID,0.0679233,VALID,18.089,VALID,131,VALID,1.18146,
2009-05-28, 02:37:00,VALID,915.387,VALID,0,VALID,84.1357,VALID,0.101885,VALID,18.0501,VALID,133,VALID,1.28203,
2009-05-28, 02:38:00,VALID,915.398,VALID,0,VALID,84.3315,VALID,0.0679233,VALID,18.0179,VALID,136,VALID,1.13077,
2009-05-28, 02:39:00,VALID,915.404,VALID,0,VALID,84.7702,VALID,-0.0339617,VALID,17.9836,VALID,142,VALID,1.07754,
2009-05-28, 02:40:00,VALID,915.423,VALID,0,VALID,86.2885,VALID,-0.0849042,VALID,17.9484,VALID,143,VALID,1.32031,
2009-05-28, 02:41:00,VALID,915.431,VALID,0,VALID,88.903,VALID,-0.0169808,VALID,17.8965,VALID,151,VALID,0.470238,
2009-05-28, 02:42:00,VALID,915.45,VALID,0,VALID,90.228,VALID,-0.0679233,VALID,17.8022,VALID,157,VALID,0.838728,
2009-05-28, 02:43:00,VALID,915.472,VALID,0,VALID,91.2859,VALID,-0.0849042,VALID,17.7276,VALID,151,VALID,1.15606,
2009-05-28, 02:44:00,VALID,915.451,VALID,0,VALID,92.3198,VALID,-0.0509425,VALID,17.6399,VALID,148,VALID,1.33739,
2009-05-28, 02:45:00,VALID,915.428,VALID,0,VALID,93.1387,VALID,-0.0679233,VALID,17.5528,VALID,144,VALID,1.14489,
2009-05-28, 02:46:00,VALID,915.398,VALID,0,VALID,93.3231,VALID,-0.0339617,VALID,17.4451,VALID,138,VALID,1.24437,
2009-05-28, 02:47:00,VALID,915.374,VALID,0,VALID,92.5919,VALID,-0.0509425,VALID,17.3908,VALID,135,VALID,1.16127,
2009-05-28, 02:48:00,VALID,915.37,VALID,0,VALID,91.5275,VALID,-0.0169808,VALID,17.3997,VALID,133,VALID,0.851749,
2009-05-28, 02:49:00,VALID,915.366,VALID,0,VALID,90.1695,VALID,0,VALID,17.4451,VALID,129,VALID,0.661932,
2009-05-28, 02:50:00,VALID,915.356,VALID,0,VALID,89.3061,VALID,-0.0509425,VALID,17.5141,VALID,131,VALID,0.769345,
2009-05-28, 02:51:00,VALID,915.358,VALID,0,VALID,88.6995,VALID,-0.0169808,VALID,17.5396,VALID,127,VALID,0.942894,
2009-05-28, 02:52:00,VALID,915.353,VALID,0,VALID,88.0662,VALID,0,VALID,17.5942,VALID,120,VALID,1.02912,
2009-05-28, 02:53:00,VALID,915.337,VALID,0,VALID,87.5093,VALID,-0.0339617,VALID,17.6105,VALID,116,VALID,1.09139,
2009-05-28, 02:54:00,VALID,915.328,VALID,0,VALID,87.0642,VALID,-0.0679233,VALID,17.6204,VALID,120,VALID,1.00934,
2009-05-28, 02:55:00,VALID,915.323,VALID,0,VALID,86.3661,VALID,-0.0339617,VALID,17.6461,VALID,123,VALID,1.13523,
2009-05-28, 02:56:00,VALID,915.314,VALID,0,VALID,85.8765,VALID,-0.0339617,VALID,17.711,VALID,121,VALID,1.00527,
2009-05-28, 02:57:00,VALID,915.311,VALID,0,VALID,85.7583,VALID,-0.0679233,VALID,17.7207,VALID,123,VALID,0.817708,
2009-05-28, 02:58:00,VALID,915.301,VALID,0,VALID,85.86,VALID,-0.0509425,VALID,17.6623,VALID,123,VALID,0.919829,
2009-05-28, 02:59:00,VALID,915.292,VALID,0,VALID,86.45,VALID,-0.0169808,VALID,17.6338,VALID,110,VALID,1.17778,
2009-05-28, 03:00:00,VALID,915.281,VALID,0,VALID,86.7158,VALID,-0.0849042,VALID,17.5556,VALID,127,VALID,1.25145,
2009-05-28, 03:01:00,VALID,915.256,VALID,0,VALID,86.4767,VALID,-0.0339617,VALID,17.5391,VALID,128,VALID,1.4435,
2009-05-28, 03:02:00,VALID,915.234,VALID,0,VALID,86.1207,VALID,-0.0679233,VALID,17.6137,VALID,125,VALID,1.57209,
2009-05-28, 03:03:00,VALID,915.218,VALID,0,VALID,85.7519,VALID,-0.0849042,VALID,17.6758,VALID,125,VALID,1.51936,
2009-05-28, 03:04:00,VALID,915.226,VALID,0,VALID,85.5675,VALID,-0.0339617,VALID,17.7047,VALID,128,VALID,1.31777,
2009-05-28, 03:05:00,VALID,915.231,VALID,0,VALID,85.8804,VALID,-0.0509425,VALID,17.6371,VALID,132,VALID,1.20084,
2009-05-28, 03:06:00,VALID,915.244,VALID,0,VALID,86.5314,VALID,-0.0849042,VALID,17.5424,VALID,134,VALID,1.17511,
2009-05-28, 03:07:00,VALID,915.257,VALID,0,VALID,87.3325,VALID,-0.0169808,VALID,17.4907,VALID,134,VALID,1.28736,
2009-05-28, 03:08:00,VALID,915.247,VALID,0,VALID,86.7234,VALID,-0.0509425,VALID,17.572,VALID,120,VALID,1.42243,
2009-05-28, 03:09:00,VALID,915.245,VALID,0,VALID,85.6019,VALID,-0.0509425,VALID,17.7793,VALID,115,VALID,1.2381,
2009-05-28, 03:10:00,VALID,915.237,VALID,0,VALID,84.9254,VALID,-0.0849042,VALID,17.9023,VALID,115,VALID,0.908249,
2009-05-28, 03:11:00,VALID,915.227,VALID,0,VALID,84.727,VALID,-0.0679233,VALID,17.9315,VALID,123,VALID,0.979688,
2009-05-28, 03:12:00,VALID,915.23,VALID,0,VALID,84.7435,VALID,-0.101885,VALID,17.9479,VALID,138,VALID,1.41736,
2009-05-28, 03:13:00,VALID,915.226,VALID,0,VALID,84.9902,VALID,-0.0339617,VALID,17.938,VALID,151,VALID,0.928052,
2009-05-28, 03:14:00,VALID,915.234,VALID,0,VALID,85.4773,VALID,-0.0849042,VALID,17.8636,VALID,146,VALID,1.1533,
2009-05-28, 03:15:00,VALID,915.234,VALID,0,VALID,85.9236,VALID,-0.0679233,VALID,17.7696,VALID,141,VALID,0.743253,
2009-05-28, 03:16:00,VALID,915.224,VALID,0,VALID,86.1906,VALID,-0.0679233,VALID,17.6623,VALID,145,VALID,0.607422,
2009-05-28, 03:17:00,VALID,915.222,VALID,0,VALID,86.2631,VALID,-0.101885,VALID,17.6037,VALID,152,VALID,0.770712,
2009-05-28, 03:18:00,VALID,915.25,VALID,0,VALID,86.3966,VALID,-0.0849042,VALID,17.5651,VALID,147,VALID,0.521341,
2009-05-28, 03:19:00,VALID,915.234,VALID,0,VALID,86.4933,VALID,-0.0849042,VALID,17.559,VALID,147,VALID,0.513849,
2009-05-28, 03:20:00,VALID,915.236,VALID,0,VALID,86.5607,VALID,-0.0849042,VALID,17.562,VALID,142,VALID,0.790451,
2009-05-28, 03:21:00,VALID,915.219,VALID,0,VALID,86.6331,VALID,-0.101885,VALID,17.5519,VALID,134,VALID,0.49295,
2009-05-28, 03:22:00,VALID,915.194,VALID,0,VALID,86.74,VALID,-0.0509425,VALID,17.5456,VALID,130,VALID,0.36859,
2009-05-28, 03:23:00,VALID,915.172,VALID,0,VALID,87.0248,VALID,-0.0509425,VALID,17.5197,VALID,133,VALID,0.881037,
2009-05-28, 03:24:00,VALID,915.155,VALID,0,VALID,87.2232,VALID,0,VALID,17.5737,VALID,121,VALID,1.01912,
2009-05-28, 03:25:00,VALID,915.136,VALID,0,VALID,86.9778,VALID,0.0169808,VALID,17.5575,VALID,96,VALID,0.744531,
2009-05-28, 03:26:00,VALID,915.138,VALID,0,VALID,87.5919,VALID,0.0339617,VALID,17.2462,VALID,64,VALID,0.877976,
2009-05-28, 03:27:00,VALID,915.115,VALID,0,VALID,89.0657,VALID,0,VALID,17.0128,VALID,83,VALID,0.847929,
2009-05-28, 03:28:00,VALID,915.102,VALID,0,VALID,89.994,VALID,0.0169808,VALID,16.935,VALID,91,VALID,0.793555,
2009-05-28, 03:29:00,VALID,915.088,VALID,0,VALID,90.4022,VALID,0.0679233,VALID,16.9508,VALID,98,VALID,0.797991,
2009-05-28, 03:30:00,VALID,915.078,VALID,0,VALID,90.3005,VALID,0.0169808,VALID,17.0387,VALID,110,VALID,0.941406,
2009-05-28, 03:31:00,VALID,915.086,VALID,0,VALID,89.9126,VALID,-0.0169808,VALID,17.1068,VALID,122,VALID,0.987723,
2009-05-28, 03:32:00,VALID,915.094,VALID,0,VALID,89.6151,VALID,0.0169808,VALID,17.139,VALID,125,VALID,0.958705,
2009-05-28, 03:33:00,VALID,915.11,VALID,0,VALID,89.3811,VALID,0,VALID,17.1593,VALID,125,VALID,0.851199,
2009-05-28, 03:34:00,VALID,915.123,VALID,0,VALID,89.3315,VALID,0.0169808,VALID,17.1261,VALID,125,VALID,0.419085,